| time (UTC) | temp F | wind direction | speed MPH | gust MPH | rain 1hr in | rain 24hr in | rain mn in | humidity % | barometer mb |
| 20260509101233 | 71 | 302 | 2.0 | 5.0 | 0.00 | 0.00 | 0.00 | 91 | 1009.3 |
| 20260509100730 | 71 | 346 | 5.0 | 8.0 | 0.00 | 0.00 | 0.00 | 91 | 1009.3 |
| 20260509100228 | 71 | 354 | 4.0 | 6.0 | 0.00 | 0.00 | 0.00 | 91 | 1009.3 |
| 20260509095719 | 71 | 359 | 2.0 | 6.0 | 0.00 | 0.00 | 0.00 | 92 | 1009.1 |
| 20260509095216 | 70 | 336 | 3.0 | 3.0 | 0.00 | 0.00 | 0.00 | 92 | 1009.0 |
| 20260509094713 | 70 | 343 | 1.0 | 3.0 | 0.00 | 0.00 | 0.00 | 92 | 1008.7 |
| 20260509094210 | 70 | 14 | 0.0 | 1.0 | 0.00 | 0.00 | 0.00 | 92 | 1008.5 |
| 20260509093708 | 70 | 21 | 4.0 | 6.0 | 0.00 | 0.00 | 0.00 | 92 | 1008.3 |
| 20260509093205 | 70 | 222 | 3.0 | 5.0 | 0.00 | 0.00 | 0.00 | 93 | 1008.2 |
| 20260509092703 | 69 | 304 | 2.0 | 6.0 | 0.00 | 0.00 | 0.00 | 93 | 1007.6 |
| 20260509092201 | 69 | 235 | 5.0 | 9.0 | 0.00 | 0.00 | 0.00 | 93 | 1007.5 |
| 20260509091659 | 69 | 202 | 4.0 | 8.0 | 0.00 | 0.00 | 0.00 | 93 | 1007.6 |
| 20260509091154 | 69 | 226 | 6.0 | 8.0 | 0.00 | 0.00 | 0.00 | 92 | 1007.2 |
| 20260509090653 | 69 | 203 | 5.0 | 8.0 | 0.00 | 0.00 | 0.00 | 92 | 1007.5 |
| 20260509090150 | 69 | 218 | 4.0 | 7.0 | 0.00 | 0.00 | 0.00 | 92 | 1007.6 |
| 20260509085647 | 70 | 177 | 5.0 | 10.0 | 0.00 | 0.00 | 0.00 | 92 | 1007.4 |
| 20260509085143 | 70 | 199 | 5.0 | 8.0 | 0.00 | 0.00 | 0.00 | 92 | 1007.2 |
| 20260509084641 | 70 | 135 | 5.0 | 8.0 | 0.00 | 0.00 | 0.00 | 91 | 1007.7 |
| 20260509084138 | 70 | 144 | 4.0 | 10.0 | 0.00 | 0.00 | 0.00 | 91 | 1008.0 |
| 20260509083635 | 70 | 175 | 3.0 | 8.0 | 0.00 | 0.00 | 0.00 | 91 | 1008.4 |
| 20260509083131 | 70 | 182 | 6.0 | 8.0 | 0.00 | 0.00 | 0.00 | 90 | 1008.7 |
| 20260509082629 | 70 | 155 | 4.0 | 8.0 | 0.00 | 0.00 | 0.00 | 90 | 1009.1 |
| 20260509082125 | 71 | 159 | 5.0 | 8.0 | 0.00 | 0.00 | 0.00 | 90 | 1009.3 |
| 20260509081622 | 71 | 173 | 4.0 | 6.0 | 0.00 | 0.00 | 0.00 | 89 | 1009.9 |
| 20260509081120 | 71 | 290 | 2.0 | 6.0 | 0.00 | 0.00 | 0.00 | 89 | 1009.9 |
| 20260509080618 | 71 | 265 | 3.0 | 6.0 | 0.00 | 0.00 | 0.00 | 89 | 1009.9 |
| 20260509080115 | 71 | 163 | 5.0 | 6.0 | 0.00 | 0.00 | 0.00 | 89 | 1010.0 |
| 20260509075613 | 71 | 167 | 2.0 | 5.0 | 0.00 | 0.00 | 0.00 | 88 | 1010.3 |
| 20260509075110 | 71 | 182 | 3.0 | 5.0 | 0.00 | 0.00 | 0.00 | 88 | 1010.5 |
| 20260509074607 | 71 | 220 | 4.0 | 6.0 | 0.00 | 0.00 | 0.00 | 88 | 1010.3 |
| 20260509074103 | 71 | 231 | 5.0 | 9.0 | 0.00 | 0.00 | 0.00 | 87 | 1010.5 |
| 20260509073601 | 72 | 244 | 5.0 | 7.0 | 0.00 | 0.00 | 0.00 | 87 | 1010.7 |
| 20260509073056 | 72 | 229 | 6.0 | 7.0 | 0.00 | 0.00 | 0.00 | 87 | 1010.7 |
| 20260509072553 | 72 | 264 | 7.0 | 11.0 | 0.00 | 0.00 | 0.00 | 87 | 1011.1 |
| 20260509072044 | 72 | 333 | 3.0 | 7.0 | 0.00 | 0.00 | 0.00 | 86 | 1011.1 |
| 20260509071541 | 72 | 290 | 5.0 | 14.0 | 0.00 | 0.00 | 0.00 | 86 | 1011.2 |
| 20260509071039 | 72 | 226 | 6.0 | 9.0 | 0.00 | 0.00 | 0.00 | 86 | 1011.4 |
| 20260509070536 | 72 | 226 | 7.0 | 10.0 | 0.00 | 0.00 | 0.00 | 86 | 1011.3 |
| 20260509070032 | 71 | 274 | 4.0 | 8.0 | 0.00 | 0.00 | 0.00 | 87 | 1011.2 |
| 20260509065527 | 71 | 247 | 3.0 | 6.0 | 0.00 | 0.00 | 0.00 | 87 | 1010.9 |
| 20260509065024 | 71 | 256 | 3.0 | 3.0 | 0.00 | 0.00 | 0.00 | 87 | 1010.8 |
| 20260509064521 | 71 | 258 | 3.0 | 5.0 | 0.00 | 0.00 | 0.00 | 86 | 1010.6 |
| 20260509064020 | 71 | 304 | 1.0 | 3.0 | 0.00 | 0.00 | 0.00 | 86 | 1010.6 |
| 20260509063514 | 72 | 216 | 4.0 | 5.0 | 0.00 | 0.00 | 0.00 | 86 | 1010.7 |
| 20260509063012 | 72 | 203 | 5.0 | 6.0 | 0.00 | 0.00 | 0.00 | 85 | 1011.1 |
| 20260509062509 | 72 | 238 | 3.0 | 5.0 | 0.00 | 0.00 | 0.00 | 85 | 1010.9 |
| 20260509062007 | 73 | 192 | 4.0 | 5.0 | 0.00 | 0.00 | 0.00 | 84 | 1010.8 |
| 20260509061504 | 73 | 144 | 4.0 | 6.0 | 0.00 | 0.00 | 0.00 | 84 | 1011.1 |
| 20260509061001 | 73 | 50 | 1.0 | 3.0 | 0.00 | 0.00 | 0.00 | 83 | 1011.4 |
| 20260509060458 | 73 | 314 | 2.0 | 2.0 | 0.00 | 0.00 | 0.00 | 83 | 1011.8 |
| 20260509055953 | 73 | 34 | 1.0 | 2.0 | 0.00 | 0.00 | 0.00 | 83 | 1011.4 |
| 20260509055449 | 73 | 3 | 1.0 | 1.0 | 0.00 | 0.00 | 0.00 | 84 | 1011.4 |
| 20260509054946 | 72 | 12 | 0.0 | 0.0 | 0.00 | 0.00 | 0.00 | 85 | 1011.5 |
| 20260509054442 | 72 | 11 | 1.0 | 2.0 | 0.00 | 0.00 | 0.00 | 85 | 1011.8 |
| 20260509053941 | 72 | 11 | 1.0 | 3.0 | 0.00 | 0.00 | 0.00 | 85 | 1011.5 |
| 20260509053438 | 72 | 5 | 1.0 | 2.0 | 0.00 | 0.00 | 0.00 | 85 | 1011.9 |
| 20260509052935 | 72 | 7 | 2.0 | 2.0 | 0.00 | 0.00 | 0.00 | 85 | 1011.6 |
| 20260509052433 | 72 | 359 | 0.0 | 0.0 | 0.00 | 0.00 | 0.00 | 85 | 1010.8 |
| 20260509051931 | 72 | 274 | 3.0 | 3.0 | 0.00 | 0.00 | 0.00 | 84 | 1011.1 |
| 20260509051428 | 72 | 306 | 1.0 | 2.0 | 0.00 | 0.00 | 0.00 | 84 | 1010.6 |
| 20260509050925 | 72 | 205 | 3.0 | 5.0 | 0.00 | 0.00 | 0.00 | 84 | 1010.4 |
| 20260509050422 | 73 | 206 | 3.0 | 5.0 | 0.00 | 0.00 | 0.00 | 83 | 1010.7 |
| 20260509045919 | 73 | 322 | 1.0 | 2.0 | 0.00 | 0.00 | 0.00 | 83 | 1010.7 |
| 20260509045415 | 73 | 358 | 1.0 | 2.0 | 0.00 | 0.00 | 0.00 | 82 | 1010.7 |
| 20260509044913 | 73 | 208 | 4.0 | 6.0 | 0.00 | 0.00 | 0.00 | 82 | 1010.4 |
| 20260509044410 | 73 | 93 | 2.0 | 5.0 | 0.00 | 0.00 | 0.00 | 82 | 1010.5 |
| 20260509043907 | 73 | 150 | 4.0 | 6.0 | 0.00 | 0.00 | 0.00 | 81 | 1010.5 |
| 20260509043403 | 73 | 60 | 4.0 | 6.0 | 0.00 | 0.00 | 0.00 | 81 | 1010.5 |
| 20260509042859 | 73 | 200 | 3.0 | 3.0 | 0.00 | 0.00 | 0.00 | 81 | 1010.7 |
| 20260509042356 | 73 | 47 | 2.0 | 3.0 | 0.00 | 0.00 | 0.00 | 80 | 1010.6 |
| 20260509041852 | 73 | 141 | 3.0 | 5.0 | 0.00 | 0.00 | 0.00 | 80 | 1010.9 |
| 20260509041349 | 73 | 52 | 2.0 | 2.0 | 0.00 | 0.00 | 0.00 | 81 | 1011.2 |
| 20260509040847 | 73 | 22 | 0.0 | 0.0 | 0.00 | 0.00 | 0.00 | 81 | 1011.3 |
| 20260509040345 | 73 | 22 | 0.0 | 2.0 | 0.00 | 0.00 | 0.00 | 81 | 1011.3 |
| 20260509035842 | 73 | 21 | 0.0 | 1.0 | 0.00 | 0.00 | 0.00 | 81 | 1011.3 |
| 20260509035339 | 73 | 18 | 0.0 | 3.0 | 0.00 | 0.00 | 0.00 | 81 | 1011.0 |
| 20260509034834 | 73 | 38 | 1.0 | 2.0 | 0.00 | 0.00 | 0.00 | 81 | 1010.7 |
| 20260509034333 | 73 | 98 | 3.0 | 3.0 | 0.00 | 0.00 | 0.00 | 80 | 1010.3 |
| 20260509033829 | 73 | 108 | 5.0 | 6.0 | 0.00 | 0.00 | 0.00 | 80 | 1010.2 |
| 20260509033327 | 73 | 62 | 3.0 | 5.0 | 0.00 | 0.00 | 0.00 | 80 | 1010.4 |
| 20260509032823 | 73 | 94 | 3.0 | 5.0 | 0.00 | 0.00 | 0.00 | 80 | 1010.7 |
| 20260509032320 | 73 | 97 | 2.0 | 5.0 | 0.00 | 0.00 | 0.00 | 80 | 1010.5 |
| 20260509031818 | 73 | 38 | 1.0 | 3.0 | 0.00 | 0.00 | 0.00 | 80 | 1010.5 |
| 20260509031315 | 73 | 52 | 2.0 | 5.0 | 0.00 | 0.00 | 0.00 | 80 | 1010.5 |
| 20260509030813 | 73 | 98 | 3.0 | 5.0 | 0.00 | 0.00 | 0.00 | 79 | 1010.3 |
| 20260509030311 | 73 | 146 | 5.0 | 8.0 | 0.00 | 0.00 | 0.00 | 79 | 1010.2 |
| 20260509025807 | 73 | 138 | 2.0 | 3.0 | 0.00 | 0.00 | 0.00 | 79 | 1010.1 |
| 20260509025306 | 73 | 100 | 2.0 | 6.0 | 0.00 | 0.00 | 0.00 | 79 | 1010.2 |
| 20260509024758 | 73 | 172 | 5.0 | 7.0 | 0.00 | 0.00 | 0.00 | 79 | 1010.2 |
| 20260509024255 | 73 | 203 | 4.0 | 6.0 | 0.00 | 0.00 | 0.00 | 79 | 1010.0 |
| 20260509023752 | 73 | 163 | 3.0 | 6.0 | 0.00 | 0.00 | 0.00 | 79 | 1010.0 |
| 20260509023249 | 73 | 158 | 2.0 | 6.0 | 0.00 | 0.00 | 0.00 | 79 | 1009.7 |
| 20260509022745 | 73 | 210 | 2.0 | 7.0 | 0.00 | 0.00 | 0.00 | 79 | 1009.7 |
| 20260509022243 | 73 | 127 | 5.0 | 8.0 | 0.00 | 0.00 | 0.00 | 78 | 1009.5 |
| 20260509021739 | 73 | 139 | 2.0 | 5.0 | 0.00 | 0.00 | 0.00 | 78 | 1009.4 |
| 20260509021237 | 73 | 126 | 3.0 | 5.0 | 0.00 | 0.00 | 0.00 | 78 | 1009.4 |
| 20260509020735 | 73 | 153 | 4.0 | 6.0 | 0.00 | 0.00 | 0.00 | 78 | 1009.4 |
| 20260509020232 | 73 | 183 | 3.0 | 5.0 | 0.00 | 0.00 | 0.00 | 77 | 1009.5 |
| 20260509015730 | 73 | 169 | 2.0 | 6.0 | 0.00 | 0.00 | 0.00 | 77 | 1009.5 |
| 20260509015228 | 73 | 167 | 3.0 | 5.0 | 0.00 | 0.00 | 0.00 | 77 | 1009.8 |
| 20260509014724 | 73 | 100 | 4.0 | 5.0 | 0.00 | 0.00 | 0.00 | 78 | 1009.4 |
| 20260509014221 | 73 | 141 | 4.0 | 6.0 | 0.00 | 0.00 | 0.00 | 77 | 1009.4 |
| 20260509013718 | 73 | 137 | 2.0 | 5.0 | 0.00 | 0.00 | 0.00 | 77 | 1009.8 |
| 20260509013213 | 73 | 183 | 2.0 | 5.0 | 0.00 | 0.00 | 0.00 | 77 | 1009.4 |
| 20260509012710 | 73 | 171 | 2.0 | 5.0 | 0.00 | 0.00 | 0.00 | 77 | 1009.7 |
| 20260509012207 | 73 | 198 | 3.0 | 5.0 | 0.00 | 0.00 | 0.00 | 77 | 1009.5 |
| 20260509011704 | 73 | 182 | 3.0 | 6.0 | 0.00 | 0.00 | 0.00 | 77 | 1009.5 |
| 20260509011202 | 73 | 6 | 1.0 | 2.0 | 0.00 | 0.00 | 0.00 | 77 | 1009.3 |
| 20260509010700 | 73 | 43 | 1.0 | 7.0 | 0.00 | 0.00 | 0.00 | 78 | 1009.0 |
| 20260509010155 | 73 | 136 | 5.0 | 5.0 | 0.00 | 0.00 | 0.00 | 77 | 1008.8 |
| 20260509005653 | 73 | 115 | 4.0 | 7.0 | 0.00 | 0.00 | 0.00 | 77 | 1008.7 |
| 20260509005150 | 73 | 47 | 3.0 | 5.0 | 0.00 | 0.00 | 0.00 | 77 | 1008.7 |
| 20260509004645 | 73 | 89 | 3.0 | 7.0 | 0.00 | 0.00 | 0.00 | 77 | 1008.6 |
| 20260509004143 | 73 | 87 | 3.0 | 6.0 | 0.00 | 0.00 | 0.00 | 77 | 1008.9 |
| 20260509003641 | 73 | 101 | 4.0 | 7.0 | 0.00 | 0.00 | 0.00 | 77 | 1008.6 |
| 20260509003138 | 73 | 71 | 5.0 | 6.0 | 0.00 | 0.00 | 0.00 | 76 | 1008.8 |
| 20260509002635 | 73 | 61 | 3.0 | 5.0 | 0.00 | 0.00 | 0.00 | 76 | 1008.8 |
| 20260509002132 | 73 | 64 | 3.0 | 5.0 | 0.00 | 0.00 | 0.00 | 76 | 1009.0 |
| 20260509001630 | 74 | 77 | 3.0 | 3.0 | 0.00 | 0.00 | 0.00 | 75 | 1008.8 |
| 20260509001126 | 74 | 140 | 5.0 | 7.0 | 0.00 | 0.00 | 0.00 | 74 | 1008.9 |
| 20260509000624 | 74 | 57 | 2.0 | 6.0 | 0.00 | 0.00 | 0.00 | 74 | 1008.8 |
| 20260509000120 | 73 | 39 | 3.0 | 6.0 | 0.00 | 0.00 | 0.00 | 75 | 1008.9 |
| 20260508235618 | 73 | 97 | 5.0 | 7.0 | 0.00 | 0.00 | 0.00 | 75 | 1009.0 |
| 20260508235114 | 73 | 153 | 4.0 | 6.0 | 0.00 | 0.00 | 0.00 | 75 | 1009.4 |
| 20260508234612 | 73 | 109 | 5.0 | 6.0 | 0.00 | 0.00 | 0.00 | 74 | 1009.4 |
| 20260508234108 | 74 | 215 | 4.0 | 8.0 | 0.00 | 0.00 | 0.00 | 74 | 1009.4 |
| 20260508233608 | 74 | 181 | 3.0 | 3.0 | 0.00 | 0.00 | 0.00 | 74 | 1009.3 |
| 20260508233105 | 73 | 77 | 2.0 | 5.0 | 0.00 | 0.00 | 0.00 | 75 | 1009.5 |
| 20260508232602 | 74 | 220 | 5.0 | 7.0 | 0.00 | 0.00 | 0.00 | 74 | 1009.3 |
| 20260508232058 | 74 | 109 | 3.0 | 7.0 | 0.00 | 0.00 | 0.00 | 74 | 1009.0 |
| 20260508231556 | 74 | 171 | 3.0 | 5.0 | 0.00 | 0.00 | 0.00 | 74 | 1009.2 |
| 20260508231053 | 74 | 127 | 5.0 | 7.0 | 0.00 | 0.00 | 0.00 | 73 | 1009.1 |
| 20260508230549 | 74 | 96 | 4.0 | 7.0 | 0.00 | 0.00 | 0.00 | 72 | 1009.1 |
| 20260508230046 | 73 | 38 | 1.0 | 6.0 | 0.00 | 0.00 | 0.00 | 73 | 1009.4 |
| 20260508225543 | 74 | 79 | 3.0 | 3.0 | 0.00 | 0.00 | 0.00 | 71 | 1009.3 |
| 20260508225040 | 74 | 115 | 6.0 | 10.0 | 0.00 | 0.00 | 0.00 | 72 | 1009.3 |
| 20260508224538 | 75 | 85 | 3.0 | 8.0 | 0.00 | 0.00 | 0.00 | 71 | 1009.2 |
| 20260508224035 | 75 | 3 | 1.0 | 6.0 | 0.00 | 0.00 | 0.00 | 69 | 1009.2 |
| 20260508223533 | 75 | 72 | 5.0 | 8.0 | 0.00 | 0.00 | 0.00 | 71 | 1009.3 |
| 20260508223030 | 74 | 208 | 4.0 | 6.0 | 0.00 | 0.00 | 0.00 | 70 | 1009.4 |
| 20260508222527 | 74 | 104 | 4.0 | 9.0 | 0.00 | 0.00 | 0.00 | 70 | 1009.5 |
| 20260508222024 | 75 | 130 | 4.0 | 9.0 | 0.00 | 0.00 | 0.00 | 69 | 1009.4 |
| 20260508221520 | 74 | 160 | 6.0 | 9.0 | 0.00 | 0.00 | 0.00 | 70 | 1009.5 |
| 20260508221016 | 73 | 203 | 5.0 | 8.0 | 0.00 | 0.00 | 0.00 | 69 | 1009.6 |
| 20260508220513 | 73 | 177 | 7.0 | 10.0 | 0.00 | 0.00 | 0.00 | 69 | 1009.4 |
| 20260508220009 | 73 | 178 | 5.0 | 13.0 | 0.00 | 0.00 | 0.00 | 70 | 1009.5 |
| 20260508215506 | 74 | 180 | 6.0 | 10.0 | 0.00 | 0.00 | 0.00 | 69 | 1009.6 |
| 20260508215003 | 73 | 149 | 3.0 | 10.0 | 0.00 | 0.00 | 0.00 | 69 | 1009.6 |
| 20260508214500 | 73 | 249 | 3.0 | 5.0 | 0.00 | 0.00 | 0.00 | 69 | 1009.7 |
| 20260508213956 | 74 | 198 | 7.0 | 11.0 | 0.00 | 0.00 | 0.00 | 69 | 1009.3 |
| 20260508213454 | 74 | 92 | 5.0 | 8.0 | 0.00 | 0.00 | 0.00 | 67 | 1009.7 |
| 20260508212949 | 73 | 160 | 7.0 | 11.0 | 0.00 | 0.00 | 0.00 | 70 | 1009.5 |
| 20260508212446 | 73 | 195 | 5.0 | 11.0 | 0.00 | 0.00 | 0.00 | 70 | 1009.6 |
| 20260508211942 | 73 | 203 | 3.0 | 9.0 | 0.00 | 0.00 | 0.00 | 72 | 1009.5 |
| 20260508211438 | 72 | 140 | 8.0 | 10.0 | 0.00 | 0.00 | 0.00 | 73 | 1009.4 |
| 20260508210935 | 71 | 172 | 8.0 | 11.0 | 0.00 | 0.00 | 0.00 | 75 | 1009.9 |
| 20260508210432 | 71 | 128 | 6.0 | 10.0 | 0.00 | 0.00 | 0.00 | 75 | 1009.3 |
| 20260508205928 | 71 | 63 | 2.0 | 6.0 | 0.00 | 0.00 | 0.00 | 74 | 1010.1 |
| 20260508205425 | 72 | 254 | 3.0 | 5.0 | 0.00 | 0.00 | 0.00 | 74 | 1010.1 |
| 20260508204921 | 72 | 145 | 5.0 | 8.0 | 0.00 | 0.00 | 0.00 | 72 | 1010.7 |
| 20260508204418 | 72 | 73 | 2.0 | 7.0 | 0.00 | 0.00 | 0.00 | 71 | 1010.6 |
| 20260508203908 | 72 | 129 | 3.0 | 6.0 | 0.00 | 0.00 | 0.00 | 70 | 1011.2 |
| 20260508203405 | 72 | 173 | 2.0 | 7.0 | 0.00 | 0.00 | 0.00 | 70 | 1011.0 |
| 20260508202901 | 72 | 190 | 5.0 | 7.0 | 0.00 | 0.00 | 0.00 | 70 | 1011.5 |
| 20260508202358 | 72 | 213 | 8.0 | 11.0 | 0.00 | 0.00 | 0.00 | 70 | 1011.4 |
| 20260508201855 | 73 | 221 | 6.0 | 8.0 | 0.00 | 0.00 | 0.00 | 70 | 1011.5 |
| 20260508201351 | 73 | 245 | 7.0 | 8.0 | 0.00 | 0.00 | 0.00 | 69 | 1011.4 |
| 20260508200848 | 73 | 195 | 2.0 | 6.0 | 0.00 | 0.00 | 0.00 | 69 | 1011.5 |
| 20260508200345 | 73 | 192 | 3.0 | 7.0 | 0.00 | 0.00 | 0.00 | 70 | 1011.4 |
| 20260508195840 | 73 | 142 | 3.0 | 8.0 | 0.00 | 0.00 | 0.00 | 69 | 1011.5 |
| 20260508195338 | 73 | 192 | 5.0 | 8.0 | 0.00 | 0.00 | 0.00 | 68 | 1011.4 |
| 20260508194834 | 74 | 238 | 5.0 | 7.0 | 0.00 | 0.00 | 0.00 | 68 | 1011.6 |
| 20260508194331 | 75 | 195 | 4.0 | 8.0 | 0.00 | 0.00 | 0.00 | 66 | 1011.3 |
| 20260508193828 | 75 | 81 | 3.0 | 6.0 | 0.00 | 0.00 | 0.00 | 66 | 1011.2 |
| 20260508193325 | 75 | 317 | 1.0 | 5.0 | 0.00 | 0.00 | 0.00 | 65 | 1011.3 |
| 20260508192820 | 74 | 230 | 3.0 | 7.0 | 0.00 | 0.00 | 0.00 | 66 | 1011.4 |
| 20260508192318 | 74 | 198 | 6.0 | 7.0 | 0.00 | 0.00 | 0.00 | 65 | 1011.4 |
| 20260508191815 | 74 | 195 | 4.0 | 9.0 | 0.00 | 0.00 | 0.00 | 67 | 1011.5 |
| 20260508191312 | 74 | 214 | 6.0 | 10.0 | 0.00 | 0.00 | 0.00 | 67 | 1011.9 |
| 20260508190804 | 74 | 203 | 5.0 | 13.0 | 0.00 | 0.00 | 0.00 | 67 | 1011.8 |
| 20260508190259 | 75 | 202 | 6.0 | 9.0 | 0.00 | 0.00 | 0.00 | 66 | 1011.6 |
| 20260508185756 | 74 | 163 | 8.0 | 14.0 | 0.00 | 0.00 | 0.00 | 67 | 1011.5 |
| 20260508185254 | 75 | 232 | 4.0 | 7.0 | 0.00 | 0.00 | 0.00 | 66 | 1011.8 |
| 20260508184750 | 75 | 221 | 3.0 | 8.0 | 0.00 | 0.00 | 0.00 | 65 | 1011.9 |
| 20260508184248 | 76 | 137 | 5.0 | 7.0 | 0.00 | 0.00 | 0.00 | 64 | 1011.6 |
| 20260508183745 | 76 | 84 | 3.0 | 6.0 | 0.00 | 0.00 | 0.00 | 63 | 1011.9 |
| 20260508183241 | 75 | 162 | 3.0 | 9.0 | 0.00 | 0.00 | 0.00 | 65 | 1012.2 |
| 20260508182737 | 75 | 196 | 3.0 | 7.0 | 0.00 | 0.00 | 0.00 | 64 | 1012.0 |
| 20260508182234 | 75 | 139 | 3.0 | 7.0 | 0.00 | 0.00 | 0.00 | 63 | 1012.2 |
| 20260508181730 | 75 | 90 | 5.0 | 8.0 | 0.00 | 0.00 | 0.00 | 62 | 1012.2 |
| 20260508181227 | 76 | 87 | 4.0 | 10.0 | 0.00 | 0.00 | 0.00 | 61 | 1012.3 |
| 20260508180723 | 76 | 45 | 2.0 | 9.0 | 0.00 | 0.00 | 0.00 | 64 | 1012.4 |
| 20260508180220 | 74 | 89 | 3.0 | 5.0 | 0.00 | 0.00 | 0.00 | 65 | 1012.5 |
| 20260508175717 | 74 | 122 | 4.0 | 8.0 | 0.00 | 0.00 | 0.00 | 65 | 1012.7 |
| 20260508175214 | 75 | 136 | 5.0 | 8.0 | 0.00 | 0.00 | 0.00 | 64 | 1012.6 |
| 20260508174712 | 74 | 205 | 4.0 | 6.0 | 0.00 | 0.00 | 0.00 | 64 | 1012.8 |
| 20260508174208 | 74 | 171 | 5.0 | 8.0 | 0.00 | 0.00 | 0.00 | 65 | 1012.6 |
| 20260508173704 | 74 | 130 | 6.0 | 8.0 | 0.00 | 0.00 | 0.00 | 65 | 1013.2 |
| 20260508173200 | 74 | 201 | 3.0 | 9.0 | 0.00 | 0.00 | 0.00 | 64 | 1013.0 |
| 20260508172658 | 72 | 193 | 6.0 | 8.0 | 0.00 | 0.00 | 0.00 | 67 | 1013.4 |
| 20260508172155 | 74 | 130 | 6.0 | 7.0 | 0.00 | 0.00 | 0.00 | 63 | 1013.2 |
| 20260508171651 | 72 | 75 | 3.0 | 6.0 | 0.00 | 0.00 | 0.00 | 67 | 1013.2 |
| 20260508171147 | 73 | 71 | 2.0 | 5.0 | 0.00 | 0.00 | 0.00 | 65 | 1013.1 |
| 20260508170645 | 71 | 142 | 4.0 | 6.0 | 0.00 | 0.00 | 0.00 | 67 | 1013.4 |
| 20260508170142 | 71 | 111 | 6.0 | 7.0 | 0.00 | 0.00 | 0.00 | 66 | 1013.3 |
| 20260508165639 | 71 | 258 | 3.0 | 8.0 | 0.00 | 0.00 | 0.00 | 68 | 1013.7 |
| 20260508165136 | 71 | 199 | 4.0 | 9.0 | 0.00 | 0.00 | 0.00 | 67 | 1013.9 |
| 20260508164633 | 71 | 48 | 3.0 | 7.0 | 0.00 | 0.00 | 0.00 | 67 | 1014.0 |
| 20260508164130 | 71 | 33 | 2.0 | 8.0 | 0.00 | 0.00 | 0.00 | 67 | 1014.2 |
| 20260508163627 | 72 | 160 | 6.0 | 8.0 | 0.00 | 0.00 | 0.00 | 65 | 1014.1 |
| 20260508163124 | 72 | 167 | 3.0 | 6.0 | 0.00 | 0.00 | 0.00 | 65 | 1014.2 |
| 20260508162614 | 72 | 105 | 4.0 | 7.0 | 0.00 | 0.00 | 0.00 | 65 | 1014.3 |
| 20260508162112 | 71 | 86 | 2.0 | 6.0 | 0.00 | 0.00 | 0.00 | 67 | 1014.2 |
| 20260508161608 | 70 | 208 | 3.0 | 9.0 | 0.00 | 0.00 | 0.00 | 68 | 1014.2 |
| 20260508161106 | 70 | 170 | 5.0 | 7.0 | 0.00 | 0.00 | 0.00 | 67 | 1014.3 |
| 20260508160604 | 70 | 138 | 3.0 | 6.0 | 0.00 | 0.00 | 0.00 | 68 | 1014.5 |
| 20260508155558 | 69 | 149 | 3.0 | 7.0 | 0.00 | 0.00 | 0.00 | 69 | 1014.6 |
| 20260508155055 | 69 | 213 | 6.0 | 7.0 | 0.00 | 0.00 | 0.00 | 69 | 1014.7 |
| 20260508154552 | 69 | 147 | 3.0 | 5.0 | 0.00 | 0.00 | 0.00 | 68 | 1014.6 |
| 20260508154049 | 69 | 163 | 4.0 | 6.0 | 0.00 | 0.00 | 0.00 | 67 | 1014.7 |
| 20260508153546 | 69 | 144 | 5.0 | 6.0 | 0.00 | 0.00 | 0.00 | 66 | 1014.8 |
| 20260508153042 | 69 | 168 | 3.0 | 5.0 | 0.00 | 0.00 | 0.00 | 68 | 1014.7 |
| 20260508152540 | 68 | 128 | 4.0 | 6.0 | 0.00 | 0.00 | 0.00 | 68 | 1015.0 |
| 20260508152034 | 68 | 135 | 3.0 | 5.0 | 0.00 | 0.00 | 0.00 | 68 | 1015.3 |
| 20260508151532 | 68 | 120 | 2.0 | 5.0 | 0.00 | 0.00 | 0.00 | 68 | 1015.0 |
| 20260508151028 | 68 | 50 | 1.0 | 5.0 | 0.00 | 0.00 | 0.00 | 69 | 1015.0 |
| 20260508150526 | 68 | 171 | 6.0 | 7.0 | 0.00 | 0.00 | 0.00 | 68 | 1015.0 |
| 20260508150021 | 68 | 51 | 4.0 | 8.0 | 0.00 | 0.00 | 0.00 | 68 | 1014.9 |
| 20260508145518 | 68 | 49 | 2.0 | 6.0 | 0.00 | 0.00 | 0.00 | 68 | 1014.9 |
| 20260508145014 | 68 | 129 | 4.0 | 7.0 | 0.00 | 0.00 | 0.00 | 68 | 1015.1 |
| 20260508144512 | 68 | 185 | 5.0 | 8.0 | 0.00 | 0.00 | 0.00 | 67 | 1015.0 |
| 20260508144009 | 67 | 55 | 5.0 | 6.0 | 0.00 | 0.00 | 0.00 | 68 | 1015.0 |
| 20260508143507 | 67 | 63 | 2.0 | 9.0 | 0.00 | 0.00 | 0.00 | 68 | 1015.1 |
| 20260508143003 | 67 | 140 | 5.0 | 8.0 | 0.00 | 0.00 | 0.00 | 69 | 1014.9 |
| 20260508142501 | 66 | 211 | 2.0 | 7.0 | 0.00 | 0.00 | 0.00 | 71 | 1015.1 |
| 20260508141956 | 66 | 132 | 5.0 | 8.0 | 0.00 | 0.00 | 0.00 | 71 | 1015.1 |
| 20260508141453 | 66 | 77 | 4.0 | 8.0 | 0.00 | 0.00 | 0.00 | 70 | 1015.3 |
| 20260508140952 | 66 | 88 | 4.0 | 8.0 | 0.00 | 0.00 | 0.00 | 70 | 1015.4 |
| 20260508140448 | 66 | 160 | 4.0 | 9.0 | 0.00 | 0.00 | 0.00 | 71 | 1015.3 |
| 20260508135943 | 67 | 127 | 4.0 | 6.0 | 0.00 | 0.00 | 0.00 | 70 | 1015.2 |
| 20260508135440 | 66 | 49 | 2.0 | 5.0 | 0.00 | 0.00 | 0.00 | 70 | 1015.3 |
| 20260508134937 | 66 | 161 | 5.0 | 7.0 | 0.00 | 0.00 | 0.00 | 71 | 1015.4 |
| 20260508134433 | 66 | 125 | 7.0 | 11.0 | 0.00 | 0.00 | 0.00 | 70 | 1015.5 |
| 20260508133930 | 66 | 52 | 2.0 | 6.0 | 0.00 | 0.00 | 0.00 | 71 | 1015.6 |
| 20260508133428 | 66 | 169 | 5.0 | 6.0 | 0.00 | 0.00 | 0.00 | 70 | 1015.3 |
| 20260508132924 | 66 | 40 | 1.0 | 5.0 | 0.00 | 0.00 | 0.00 | 71 | 1015.5 |
| 20260508132423 | 66 | 32 | 1.0 | 3.0 | 0.00 | 0.00 | 0.00 | 71 | 1015.2 |
| 20260508131919 | 66 | 41 | 2.0 | 5.0 | 0.00 | 0.00 | 0.00 | 73 | 1015.2 |
| 20260508131414 | 65 | 74 | 3.0 | 5.0 | 0.00 | 0.00 | 0.00 | 74 | 1015.2 |
| 20260508130912 | 65 | 43 | 1.0 | 3.0 | 0.00 | 0.00 | 0.00 | 75 | 1015.4 |
| 20260508130408 | 64 | 56 | 2.0 | 3.0 | 0.00 | 0.00 | 0.00 | 76 | 1015.3 |
| 20260508125904 | 64 | 26 | 2.0 | 3.0 | 0.00 | 0.00 | 0.00 | 77 | 1015.4 |
| 20260508125400 | 64 | 42 | 2.0 | 5.0 | 0.00 | 0.00 | 0.00 | 78 | 1015.6 |
| 20260508124858 | 64 | 29 | 1.0 | 3.0 | 0.00 | 0.00 | 0.00 | 78 | 1015.5 |
| 20260508124356 | 63 | 27 | 1.0 | 2.0 | 0.00 | 0.00 | 0.00 | 79 | 1015.6 |
| 20260508123854 | 63 | 31 | 0.0 | 3.0 | 0.00 | 0.00 | 0.00 | 81 | 1015.3 |
| 20260508123352 | 62 | 34 | 0.0 | 2.0 | 0.00 | 0.00 | 0.00 | 82 | 1015.2 |
| 20260508122848 | 62 | 37 | 1.0 | 3.0 | 0.00 | 0.00 | 0.00 | 83 | 1015.4 |
| 20260508122345 | 62 | 45 | 2.0 | 3.0 | 0.00 | 0.00 | 0.00 | 82 | 1015.3 |
| 20260508121842 | 62 | 31 | 0.0 | 1.0 | 0.00 | 0.00 | 0.00 | 83 | 1015.2 |
| 20260508121340 | 61 | 55 | 2.0 | 5.0 | 0.00 | 0.00 | 0.00 | 83 | 1015.3 |
| 20260508120837 | 61 | 31 | 1.0 | 2.0 | 0.00 | 0.00 | 0.00 | 84 | 1015.6 |
| 20260508120335 | 61 | 30 | 0.0 | 1.0 | 0.00 | 0.00 | 0.00 | 84 | 1015.4 |
| 20260508115832 | 61 | 29 | 1.0 | 1.0 | 0.00 | 0.00 | 0.00 | 84 | 1015.4 |
| 20260508115330 | 61 | 39 | 1.0 | 2.0 | 0.00 | 0.00 | 0.00 | 83 | 1015.4 |
| 20260508114826 | 62 | 71 | 3.0 | 3.0 | 0.00 | 0.00 | 0.00 | 83 | 1015.5 |
| 20260508114323 | 62 | 34 | 1.0 | 3.0 | 0.00 | 0.00 | 0.00 | 83 | 1015.6 |
| 20260508113820 | 62 | 31 | 0.0 | 2.0 | 0.00 | 0.00 | 0.00 | 82 | 1015.3 |
| 20260508113318 | 62 | 52 | 1.0 | 3.0 | 0.00 | 0.00 | 0.00 | 82 | 1015.5 |
| 20260508112814 | 62 | 84 | 3.0 | 3.0 | 0.00 | 0.00 | 0.00 | 81 | 1015.6 |
| 20260508112312 | 62 | 42 | 1.0 | 3.0 | 0.00 | 0.00 | 0.00 | 81 | 1015.8 |
| 20260508111808 | 62 | 54 | 2.0 | 3.0 | 0.00 | 0.00 | 0.00 | 81 | 1015.5 |
| 20260508111305 | 61 | 356 | 1.0 | 1.0 | 0.00 | 0.00 | 0.00 | 82 | 1015.9 |
| 20260508110802 | 61 | 352 | 1.0 | 3.0 | 0.00 | 0.00 | 0.00 | 84 | 1016.0 |
| 20260508110300 | 61 | 354 | 1.0 | 2.0 | 0.00 | 0.00 | 0.00 | 85 | 1015.7 |
| 20260508105759 | 61 | 338 | 1.0 | 1.0 | 0.00 | 0.00 | 0.00 | 86 | 1015.7 |
| 20260508105256 | 61 | 337 | 0.0 | 1.0 | 0.00 | 0.00 | 0.00 | 86 | 1015.5 |
| 20260508104753 | 61 | 204 | 1.0 | 1.0 | 0.00 | 0.00 | 0.00 | 86 | 1015.5 |
| 20260508104250 | 60 | 188 | 0.0 | 1.0 | 0.00 | 0.00 | 0.00 | 87 | 1015.1 |
| 20260508103748 | 61 | 188 | 0.0 | 0.0 | 0.00 | 0.00 | 0.00 | 86 | 1014.9 |
| 20260508103244 | 61 | 196 | 0.0 | 1.0 | 0.00 | 0.00 | 0.00 | 86 | 1014.7 |
| 20260508102742 | 61 | 95 | 2.0 | 2.0 | 0.00 | 0.00 | 0.00 | 86 | 1014.3 |
| 20260508102240 | 61 | 105 | 2.0 | 3.0 | 0.00 | 0.00 | 0.00 | 86 | 1014.4 |
| 20260508101737 | 61 | 34 | 1.0 | 1.0 | 0.00 | 0.00 | 0.00 | 85 | 1014.5 |